SL-16 DEB, 18417

Orbit data source: Space-Track

SL-16 DEB, 18417 is space debris in LEO originally from a launch on Wed, 18 Mar 1987 UTC launched from the Tyuratam Missile And Space Complex (TTMTR). Debris objects in space refer to the collection of defunct objects orbiting the Earth. Examples of debris include non-operational satellites, rocket bodies, and fragments generated from explosions, collisions, or faulty payload assembly.

Loading next visibility...
Identifier
18417, 1987-027D
Orbit
LEO
Country
Flag of CISCIS
Related business
Manufacturer
Yuzhnoe
Mission
Spacecraft
Bus & Motor
SEP MOTOR COVER, Unknown motor
Mass
~0 kg wet, ~1 kg dry
Launch date (UTC)
1987-03-18 (39 years ago)
Launch vehicle
Unknown
Launch site
Tyuratam Missile And Space Complex (TTMTR)
Object type
Payload
Rocket body
Debris
Shape & HBR
CONE, 0.1 m
Radar Cross Section
Medium (>0.1 m² and <1 m²)

Expand to show TLE details & history
Last TLE update: 6 hours ago

TLE from 6 hours ago
0 SL-16 DEB
1 18417U 87027D   26255.26162299  .00000026  00000-0  62163-4 0  9992
2 18417  70.9994 172.0730 0200336 154.1711  12.2796 13.74671386979485
Epoch: 2026-09-12T06:16Z
TLE epoch observation values (Epoch: 2026-09-12T06:16:44.226Z)
Latitude
12.29628°
Longitude
-97.66591°
Altitude
840.471 km
Speed
7.506 km/s
True Right ascension
23h 11m 09s
True Declination
12° 13' 33"
Sunlit
Object was in full shadow at epoch
Visualization orbit readout
Latitude
Unknown
Longitude
Unknown
Altitude
Unknown
Speed
Unknown
Apparent Right ascension
Unknown
Apparent Declination
Unknown
Sunlit
N/A
Visualization observer readout
Local Sidereal Time
05:10:15
Azimuth
Unknown
Elevation
Unknown
Doppler factor
Unknown
Orbital elements
Apogee altitude
1,128.237 km
Perigee altitude
833.385 km
Semi-major axis
7,358.948 km
Eccentricity
0.02003
Inclination
70.9994°
RAAN
172.073°
Arg. of periapsis
154.1711°
True anomaly
12.78008°
Mean anomaly
12.2796°
Eccentric anomaly
12.5286°
Mean motion
3.43811 °/min
Orbital period
104.71 mins
BSTAR
0.000062163
Loading maneuver chart data...
Computing Atmospheric mass density...
Loading historical data...
Loading historical data...
Loading historical data...
Loading historical data...
Loading historical data...
Loading historical data...
Loading historical data...

Documentation

Showing up to 5 results
|